Terminal Aerodrome Forecast
Issued by NWS

Home | Current Version | Previous Version | Text Only | Print | Product List | Glossary On
Versions: 1 2 3 4 5 6 7 8 9 10 11 12 13 14 15 16 17 18 19 20 21 22 23
799
FTUS43 KGRR 220155 AAC
TAFMKG
TAF AMD
KMKG 220155Z 2202/2224 12005KT 1/4SM FG VV004
     FM221000 17005KT 1/2SM FG VV002
     FM221200 20008KT 1 1/2SM BR BKN040
     FM221500 20012G25KT P6SM SCT040=

USA.gov is the U.S. government's official web portal to all federal, state and local government web resources and services.